Погода в Вакаяме

Япония     34°12′55″N   135°10′07″E
темп.,
°C
ветер,
м/с
пор.,
м/с
влажн.,
%
обл.,
%
осадки,
мм/ч
давл.,
гПа
погр.,
м
30 ноября, вт
вт3000:00+9вюв23773 0.0 102754
03:00+9юв22800 0.0 102544
06:00+8вюв22822 0.0 102435
09:00+13юв25725 0.0 1022206
12:00+16ююв7136186 0.1 10181447
15:00+17ююв81567100 0.1 10141446
18:00+15ююв81567100 0.0 10131284
21:00+15ю91889100 2.1 10101370
1 декабря, ср
ср100:00+13зсз2996100 40.9 1009719
03:00+13зсз61283100 62.1 10091146
06:00+9сз8136646 0.1 10121383
09:00+9сз7115888 0.2 10141841
12:00+10зсз8125488 0.0 10141882
15:00+9зсз8125398 0.1 10142083
18:00+7зсз81355100 0.1 10171877
21:00+6сз7135599 0.1 10181724
2 декабря, чт
чт200:00+6сз7115747 0.0 10191281
03:00+6ссз586584 0.1 1019878
06:00+4св247616 0.1 1020246
09:00+7ссв24659 0.1 1020737
12:00+9сз34567 0.0 10191236
15:00+9ссз22565 0.0 10191050
18:00+6в01672 0.0 1020110
21:00+5юв22762 0.0 1022123
3 декабря, пт
пт300:00+5в237573 0.0 102063
03:00+5в11729 0.0 101948
06:00+5юв11775 0.0 101982
09:00+8юв22695 0.0 1020222
12:00+12юз23480 0.0 1017936
15:00+11зюз254763 0.0 10161258
18:00+11з6117152 0.6 10161032
21:00+9сз6972100 1.4 1018920
4 декабря, сб
сб400:00+7зсз596116 0.0 1018882
03:00+7сз48605 0.0 1018700
06:00+6зсз48605 0.0 1019576
09:00+8сз685718 0.0 10201575
12:00+9зсз785118 0.0 10191569
15:00+10сз694830 0.0 10192106
18:00+8сз695395 0.0 1021784
21:00+7ссз58637 0.0 1022681